FW7746 Weather Reports


time (UTC)temp
C
wind
direction
speed
KPH
gust
KPH
rain 1hr
cm
rain 24hr
cm
rain mn
cm
humidity
%
barometer
mb
20260507094104 12 194 0.0 1.6 0.00 0.00 0.00 61 1014.4
20260507093603 12 203 0.0 1.6 0.00 0.00 0.00 61 1014.5
20260507093104 12 164 0.0 3.2 0.00 0.00 0.00 61 1014.5
20260507092604 12 146 0.0 0.0 0.00 0.00 0.00 61 1014.6
20260507092103 12 145 0.0 0.0 0.00 0.00 0.00 61 1014.6
20260507091604 12 138 0.0 1.6 0.00 0.00 0.00 61 1014.7
20260507091103 12 292 0.0 0.0 0.00 0.00 0.00 61 1014.7
20260507090604 12 304 0.0 1.6 0.00 0.00 0.00 62 1014.8
20260507090105 12 322 0.0 0.0 0.00 0.00 0.00 62 1014.8
20260507085604 12 322 0.0 0.0 0.00 0.00 0.00 63 1015.0
20260507084604 11 324 0.0 0.0 0.00 0.00 0.00 65 1015.1
20260507084103 11 325 0.0 0.0 0.00 0.00 0.00 65 1015.0
20260507083604 11 325 0.0 0.0 0.00 0.00 0.00 65 1015.0
20260507083103 11 325 0.0 0.0 0.00 0.00 0.00 66 1015.0
20260507082604 11 325 0.0 0.0 0.00 0.00 0.00 67 1015.0
20260507082103 11 325 0.0 0.0 0.00 0.00 0.00 67 1014.9
20260507081604 11 325 0.0 0.0 0.00 0.00 0.00 67 1015.1
20260507081103 11 325 0.0 0.0 0.00 0.00 0.00 67 1015.1
20260507080603 11 325 0.0 0.0 0.00 0.00 0.00 67 1015.0
20260507080104 11 325 0.0 0.0 0.00 0.00 0.00 66 1015.1
20260507075603 11 325 0.0 0.0 0.00 0.00 0.00 65 1015.1
20260507075104 11 325 0.0 0.0 0.00 0.00 0.00 64 1015.1
20260507074603 11 325 0.0 0.0 0.00 0.00 0.00 64 1015.2
20260507074104 11 325 0.0 0.0 0.00 0.00 0.00 63 1015.2
20260507073603 12 325 0.0 0.0 0.00 0.00 0.00 62 1015.2
20260507073104 12 325 0.0 0.0 0.00 0.00 0.00 62 1015.3
20260507072604 12 325 0.0 0.0 0.00 0.00 0.00 61 1015.2
20260507072103 12 325 0.0 0.0 0.00 0.00 0.00 61 1015.2
20260507071604 12 325 0.0 0.0 0.00 0.00 0.00 61 1015.3
20260507071103 12 325 0.0 0.0 0.00 0.00 0.00 60 1015.2
20260507065604 13 325 0.0 0.0 0.00 0.00 0.00 59 1015.3
20260507065104 13 325 0.0 0.0 0.00 0.00 0.00 58 1015.3
20260507064604 13 325 0.0 0.0 0.00 0.00 0.00 58 1015.3
20260507064104 13 325 0.0 0.0 0.00 0.00 0.00 58 1015.2
20260507063604 13 325 0.0 0.0 0.00 0.00 0.00 59 1015.3
20260507063104 13 325 0.0 0.0 0.00 0.00 0.00 59 1015.3
20260507062603 13 325 0.0 0.0 0.00 0.00 0.00 59 1015.3
20260507062104 13 325 0.0 0.0 0.00 0.00 0.00 59 1015.3
20260507061603 13 325 0.0 0.0 0.00 0.00 0.00 59 1015.3
20260507061104 13 325 0.0 0.0 0.00 0.00 0.00 59 1015.4
20260507060603 14 325 0.0 0.0 0.00 0.00 0.00 58 1015.4
20260507060104 14 325 0.0 0.0 0.00 0.00 0.00 57 1015.4
20260507055604 14 325 0.0 0.0 0.00 0.00 0.00 57 1015.5
20260507055104 14 325 0.0 0.0 0.00 0.00 0.00 56 1015.4
20260507054604 15 325 0.0 0.0 0.00 0.00 0.00 56 1015.5
20260507053603 15 325 0.0 0.0 0.00 0.00 0.00 56 1015.6
20260507053104 15 325 0.0 0.0 0.00 0.00 0.00 55 1015.6
20260507052604 15 325 0.0 0.0 0.00 0.00 0.00 54 1015.6
20260507052104 15 325 0.0 0.0 0.00 0.00 0.00 53 1015.7
20260507051603 15 325 0.0 0.0 0.00 0.00 0.00 53 1015.7
20260507051103 16 325 0.0 0.0 0.00 0.00 0.00 52 1015.7
20260507050104 16 325 0.0 0.0 0.00 0.00 0.00 51 1015.6
20260507045604 16 325 0.0 0.0 0.00 0.00 0.00 50 1015.5
20260507045103 16 325 0.0 0.0 0.00 0.00 0.00 51 1015.5
20260507044604 16 325 0.0 0.0 0.00 0.00 0.00 51 1015.5
20260507044104 16 325 0.0 0.0 0.00 0.00 0.00 50 1015.5
20260507043604 16 325 0.0 0.0 0.00 0.00 0.00 50 1015.4
20260507043104 16 325 0.0 0.0 0.00 0.00 0.00 51 1015.4
20260507042103 17 325 0.0 0.0 0.00 0.00 0.00 50 1015.3
20260507041603 17 325 0.0 0.0 0.00 0.00 0.00 49 1015.3
20260507041104 17 325 0.0 0.0 0.00 0.00 0.00 49 1015.2
20260507040604 17 325 0.0 0.0 0.00 0.00 0.00 49 1015.1
20260507040104 17 323 0.0 0.0 0.00 0.00 0.00 49 1015.1
20260507035604 17 323 0.0 3.2 0.00 0.00 0.00 49 1015.0
20260507034604 17 324 0.0 0.0 0.00 0.00 0.00 49 1015.0
20260507034103 17 325 1.6 9.7 0.00 0.00 0.00 48 1014.9
20260507032604 18 328 1.6 4.8 0.00 0.00 0.00 46 1014.7
20260507031604 18 329 0.0 3.2 0.00 0.00 0.00 45 1014.7
20260507030604 18 323 0.0 4.8 0.00 0.00 0.00 44 1014.5
20260507025604 18 317 0.0 0.0 0.00 0.00 0.00 43 1014.4
20260507025104 19 314 0.0 0.0 0.00 0.00 0.00 42 1014.3
20260507024604 19 314 1.6 4.8 0.00 0.00 0.00 42 1014.3
20260507024103 19 314 0.0 1.6 0.00 0.00 0.00 43 1014.3
20260507023604 19 327 0.0 4.8 0.00 0.00 0.00 42 1014.3
20260507022604 20 323 1.6 4.8 0.00 0.00 0.00 40 1014.2
20260507022103 20 277 0.0 3.2 0.00 0.00 0.00 40 1014.1
20260507021604 20 238 0.0 1.6 0.00 0.00 0.00 39 1014.0
20260507021104 20 229 0.0 3.2 0.00 0.00 0.00 39 1013.9
20260507020604 20 300 0.0 3.2 0.00 0.00 0.00 38 1014.0
20260507020104 21 294 0.0 3.2 0.00 0.00 0.00 37 1013.9
20260507015604 21 304 0.0 4.8 0.00 0.00 0.00 37 1014.0
20260507015104 21 224 0.0 4.8 0.00 0.00 0.00 38 1013.9
20260507014604 21 294 0.0 9.7 0.00 0.00 0.00 36 1014.0
20260507014103 21 323 1.6 4.8 0.00 0.00 0.00 36 1013.8
20260507013604 22 317 1.6 4.8 0.00 0.00 0.00 36 1013.8
20260507013104 22 324 4.8 19.3 0.00 0.00 0.00 36 1013.9
20260507012604 22 333 3.2 14.5 0.00 0.00 0.00 37 1013.8
20260507012103 22 319 3.2 14.5 0.00 0.00 0.00 38 1013.8
20260507011603 22 327 3.2 19.3 0.00 0.00 0.00 37 1013.8
20260507011104 21 258 1.6 4.8 0.00 0.00 0.00 37 1013.9
20260507010104 21 293 1.6 9.7 0.00 0.00 0.00 35 1013.9
20260507005604 21 297 0.0 4.8 0.00 0.00 0.00 35 1013.8
20260507005103 22 318 3.2 19.3 0.00 0.00 0.00 35 1013.8
20260507004604 22 321 4.8 16.1 0.00 0.00 0.00 35 1013.6
20260507004104 22 329 1.6 16.1 0.00 0.00 0.00 35 1013.6
20260507003604 22 322 3.2 12.9 0.00 0.00 0.00 36 1013.5
20260507002604 22 327 11.3 27.4 0.00 0.00 0.00 33 1013.4
20260507002103 23 327 12.9 27.4 0.00 0.00 0.00 31 1013.4
20260507001603 23 292 6.4 24.1 0.00 0.00 0.00 31 1013.3
20260507001104 23 328 4.8 22.5 0.00 0.00 0.00 31 1013.3
20260507000604 23 318 8.0 27.4 0.00 0.00 0.00 31 1013.2
20260507000104 23 277 4.8 22.5 0.00 0.00 0.00 30 1013.0
20260506235604 23 320 8.0 25.7 0.00 0.00 0.00 30 1013.1
20260506234104 24 320 8.0 22.5 0.00 0.00 0.00 28 1013.1
20260506233604 24 323 9.7 29.0 0.00 0.00 0.00 30 1013.0
20260506233104 25 330 6.4 20.9 0.00 0.00 0.00 29 1013.0
20260506232104 24 318 9.7 24.1 0.00 0.00 0.00 33 1013.0
20260506231604 25 319 9.7 25.7 0.00 0.00 0.00 31 1012.9
20260506231103 25 319 8.0 20.9 0.00 0.00 0.00 31 1013.1
20260506230603 25 329 6.4 19.3 0.00 0.00 0.00 32 1013.0
20260506230104 25 315 8.0 29.0 0.00 0.00 0.00 30 1013.0
20260506225604 25 336 3.2 16.1 0.00 0.00 0.00 29 1013.0
20260506225104 25 330 8.0 20.9 0.00 0.00 0.00 28 1013.0
20260506224604 25 332 4.8 12.9 0.00 0.00 0.00 26 1013.2
20260506224104 25 332 4.8 14.5 0.00 0.00 0.00 25 1013.3
20260506223104 25 329 6.4 22.5 0.00 0.00 0.00 27 1013.5
20260506222604 25 326 9.7 22.5 0.00 0.00 0.00 26 1013.3
20260506222103 25 316 9.7 22.5 0.00 0.00 0.00 26 1013.4
20260506221603 25 326 8.0 20.9 0.00 0.00 0.00 25 1013.4
20260506220603 25 319 8.0 24.1 0.00 0.00 0.00 26 1013.4
20260506220104 26 289 4.8 16.1 0.00 0.00 0.00 26 1013.5
20260506215604 26 313 4.8 14.5 0.00 0.00 0.00 26 1013.6
20260506215104 26 325 8.0 24.1 0.00 0.00 0.00 25 1013.6
20260506214603 26 324 4.8 16.1 0.00 0.00 0.00 25 1013.7
20260506214104 26 310 3.2 12.9 0.00 0.00 0.00 24 1013.7
20260506213603 26 319 6.4 14.5 0.00 0.00 0.00 24 1013.8
20260506213104 26 325 1.6 16.1 0.00 0.00 0.00 25 1013.8
20260506212604 27 328 3.2 9.7 0.00 0.00 0.00 25 1013.8
20260506212104 27 321 0.0 9.7 0.00 0.00 0.00 26 1013.8
20260506211604 27 255 0.0 4.8 0.00 0.00 0.00 26 1013.7
20260506211103 26 329 1.6 4.8 0.00 0.00 0.00 27 1013.7
20260506210603 26 321 0.0 8.0 0.00 0.00 0.00 26 1013.8
20260506210104 26 307 1.6 8.0 0.00 0.00 0.00 26 1013.9
20260506205604 26 17 0.0 0.0 0.00 0.00 0.00 28 1013.9
20260506205104 26 17 0.0 3.2 0.00 0.00 0.00 26 1013.9
20260506204604 26 340 0.0 4.8 0.00 0.00 0.00 27 1014.0
20260506204104 26 309 1.6 11.3 0.00 0.00 0.00 26 1014.0
20260506203603 26 321 0.0 3.2 0.00 0.00 0.00 27 1014.0
20260506203104 26 55 0.0 4.8 0.00 0.00 0.00 28 1014.0
20260506202603 25 342 0.0 4.8 0.00 0.00 0.00 28 1014.1
20260506202104 25 311 1.6 14.5 0.00 0.00 0.00 28 1014.2
20260506201604 25 330 3.2 12.9 0.00 0.00 0.00 27 1014.2
20260506201104 25 328 1.6 4.8 0.00 0.00 0.00 30 1014.4
20260506200603 25 332 1.6 8.0 0.00 0.00 0.00 28 1014.4
20260506200104 25 332 3.2 14.5 0.00 0.00 0.00 28 1014.4
20260506195604 25 271 0.0 4.8 0.00 0.00 0.00 28 1014.3
20260506194604 25 316 0.0 4.8 0.00 0.00 0.00 29 1014.5
20260506194103 24 316 4.8 12.9 0.00 0.00 0.00 29 1014.5
20260506193104 24 317 3.2 8.0 0.00 0.00 0.00 29 1014.8
20260506192603 24 325 4.8 12.9 0.00 0.00 0.00 30 1014.8
20260506192104 25 326 3.2 14.5 0.00 0.00 0.00 29 1014.7
20260506191604 25 329 0.0 4.8 0.00 0.00 0.00 29 1014.8
20260506191104 24 328 1.6 9.7 0.00 0.00 0.00 30 1014.8
20260506190604 25 311 0.0 8.0 0.00 0.00 0.00 31 1014.8
20260506185604 25 328 0.0 1.6 0.00 0.00 0.00 30 1014.9
20260506185104 24 346 0.0 4.8 0.00 0.00 0.00 31 1015.0
20260506184104 24 293 0.0 3.2 0.00 0.00 0.00 31 1015.2
20260506183604 23 14 0.0 0.0 0.00 0.00 0.00 33 1015.1
20260506183104 23 323 0.0 4.8 0.00 0.00 0.00 33 1015.2
20260506180604 22 258 0.0 4.8 0.00 0.00 0.00 34 1015.2
20260506175604 22 357 0.0 3.2 0.00 0.00 0.00 36 1015.4
20260506175104 22 81 1.6 4.8 0.00 0.00 0.00 36 1015.3
20260506174603 22 180 0.0 3.2 0.00 0.00 0.00 36 1015.3
20260506174104 22 233 0.0 11.3 0.00 0.00 0.00 37 1015.3
20260506173603 21 258 0.0 4.8 0.00 0.00 0.00 38 1015.3
20260506173104 21 325 0.0 0.0 0.00 0.00 0.00 38 1015.3
20260506172604 21 325 0.0 0.0 0.00 0.00 0.00 37 1015.3
20260506172104 21 326 3.2 8.0 0.00 0.00 0.00 38 1015.3
20260506171604 21 316 0.0 8.0 0.00 0.00 0.00 39 1015.4
20260506171103 21 255 0.0 1.6 0.00 0.00 0.00 39 1015.4
20260506170604 20 192 0.0 0.0 0.00 0.00 0.00 40 1015.4
20260506170104 20 197 0.0 0.0 0.00 0.00 0.00 42 1015.3
20260506165604 20 199 0.0 3.2 0.00 0.00 0.00 42 1015.4
20260506165104 20 161 0.0 0.0 0.00 0.00 0.00 42 1015.5
20260506164604 20 196 0.0 3.2 0.00 0.00 0.00 43 1015.6
20260506164104 19 139 0.0 3.2 0.00 0.00 0.00 45 1015.7
20260506163604 19 138 0.0 1.6 0.00 0.00 0.00 46 1015.7
20260506163104 18 220 0.0 3.2 0.00 0.00 0.00 47 1015.8
20260506162604 18 217 0.0 3.2 0.00 0.00 0.00 47 1015.8
20260506162104 18 237 1.6 12.9 0.00 0.00 0.00 47 1015.7
20260506161604 17 213 1.6 8.0 0.00 0.00 0.00 48 1015.6
20260506161104 17 180 0.0 1.6 0.00 0.00 0.00 50 1015.7
20260506160603 17 200 0.0 1.6 0.00 0.00 0.00 51 1015.7
20260506160104 17 181 0.0 1.6 0.00 0.00 0.00 51 1015.7
20260506155604 16 205 0.0 0.0 0.00 0.00 0.00 52 1015.6
20260506155103 16 206 0.0 14.5 0.00 0.00 0.00 54 1015.7
20260506154103 15 209 0.0 0.0 0.00 0.00 0.00 57 1015.7
20260506153604 15 212 0.0 8.0 0.00 0.00 0.00 57 1015.7
20260506153104 15 178 0.0 4.8 0.00 0.00 0.00 59 1015.7
20260506152604 14 205 1.6 9.7 0.00 0.00 0.00 60 1015.7
20260506152104 14 245 1.6 4.8 0.00 0.00 0.00 62 1015.7
20260506151604 13 161 0.0 3.2 0.00 0.00 0.00 62 1015.7
20260506151104 13 182 0.0 4.8 0.00 0.00 0.00 63 1015.7
20260506150604 13 165 0.0 0.0 0.00 0.00 0.00 65 1015.7
20260506150104 13 166 0.0 3.2 0.00 0.00 0.00 66 1015.6
20260506145604 12 238 1.6 8.0 0.00 0.00 0.00 67 1015.7
20260506145104 12 180 0.0 4.8 0.00 0.00 0.00 68 1015.6
20260506144604 12 202 1.6 4.8 0.00 0.00 0.00 69 1015.5
20260506144104 11 210 0.0 4.8 0.00 0.00 0.00 70 1015.4
20260506143104 11 230 1.6 11.3 0.00 0.00 0.00 72 1015.4
20260506142104 10 225 0.0 8.0 0.00 0.00 0.00 73 1015.3
20260506141604 10 227 1.6 9.7 0.00 0.00 0.00 74 1015.2
20260506141103 10 221 0.0 3.2 0.00 0.00 0.00 74 1015.0
20260506140604 10 224 0.0 0.0 0.00 0.00 0.00 75 1014.9
20260506140104 10 204 0.0 3.2 0.00 0.00 0.00 75 1014.9
20260506135604 10 206 0.0 3.2 0.00 0.00 0.00 76 1014.8
20260506135103 10 169 0.0 3.2 0.00 0.00 0.00 76 1014.9
20260506134103 10 178 0.0 4.8 0.00 0.00 0.00 76 1014.7
20260506133604 10 177 0.0 4.8 0.00 0.00 0.00 76 1014.6
20260506133104 10 233 0.0 3.2 0.00 0.00 0.00 76 1014.6
20260506132603 10 212 0.0 3.2 0.00 0.00 0.00 76 1014.4
20260506132104 10 223 0.0 3.2 0.00 0.00 0.00 76 1014.4
20260506130603 10 196 0.0 8.0 0.00 0.00 0.00 77 1014.4
20260506130104 10 188 0.0 4.8 0.00 0.00 0.00 77 1014.3
20260506125604 10 210 0.0 8.0 0.00 0.00 0.00 76 1014.3
20260506125104 10 216 0.0 3.2 0.00 0.00 0.00 76 1014.3
20260506124604 10 176 0.0 1.6 0.00 0.00 0.00 76 1014.4
20260506124103 10 188 0.0 3.2 0.00 0.00 0.00 76 1014.4
20260506123604 10 211 0.0 3.2 0.00 0.00 0.00 76 1014.4
20260506123104 10 170 0.0 3.2 0.00 0.00 0.00 75 1014.4
20260506122604 10 218 0.0 4.8 0.00 0.00 0.00 75 1014.4
20260506122103 10 195 0.0 4.8 0.00 0.00 0.00 75 1014.3
20260506121604 10 190 0.0 4.8 0.00 0.00 0.00 74 1014.4
20260506120604 10 208 0.0 3.2 0.00 0.00 0.00 74 1014.2
20260506120104 11 227 1.6 4.8 0.00 0.00 0.00 74 1014.2
20260506115604 11 133 0.0 3.2 0.00 0.00 0.00 74 1014.1
20260506115104 11 229 0.0 3.2 0.00 0.00 0.00 74 1014.1
20260506114603 11 210 0.0 3.2 0.00 0.00 0.00 74 1014.1
20260506114104 11 197 0.0 3.2 0.00 0.00 0.00 74 1014.0
20260506113104 11 190 0.0 1.6 0.00 0.00 0.00 74 1013.9
20260506112604 11 174 0.0 3.2 0.00 0.00 0.00 74 1013.8
20260506111604 11 190 0.0 1.6 0.00 0.00 0.00 74 1013.8
20260506111104 11 197 0.0 3.2 0.00 0.00 0.00 74 1013.8
20260506110104 11 194 0.0 3.2 0.00 0.00 0.00 73 1013.8
20260506105603 11 187 0.0 1.6 0.00 0.00 0.00 73 1013.7
20260506105104 11 196 0.0 1.6 0.00 0.00 0.00 73 1013.7
20260506104604 12 196 0.0 3.2 0.00 0.00 0.00 72 1013.6
20260506102604 12 189 0.0 0.0 0.00 0.00 0.00 72 1013.8
20260506102104 12 188 0.0 1.6 0.00 0.00 0.00 72 1013.9
20260506101604 12 187 0.0 1.6 0.00 0.00 0.00 72 1013.9
20260506101104 12 193 0.0 1.6 0.00 0.00 0.00 72 1014.0
20260506100604 12 202 0.0 0.0 0.00 0.00 0.00 72 1014.0
20260506100105 12 197 0.0 0.0 0.00 0.00 0.00 72 1014.0
20260506095604 12 203 0.0 1.6 0.00 0.00 0.00 71 1014.1
20260506095104 12 198 0.0 3.2 0.00 0.00 0.00 71 1014.1